User: anonymous   Login
Location: Gu�tanj
(46.5431°N, 14.9692°E)
Time: 04:32:09
(UTC+00:00)
Language:

Cosmos 1992 Rocket - Orbit

View from above orbital plane
View from above orbital plane
View from above satellite
View from above satellite

Ground track
Ground track

The orbit data is extracted from the following two-line orbital elements,

1 19770U 89005B   21125.27544303  .00000099  00000-0  40753-4 0  9996
2 19770  74.0440 315.4753 0004303  34.8113 137.7556 14.38870534690230
Epoch (UTC): 05 May 2021 06:36:38
Eccentricity: 0.0004303
inclination: 74.0440°
perigee height: 759 km
apogee height: 765 km
right ascension of ascending node: 315.4753°
argument of perigee: 34.8113°
revolutions per day: 14.38870534
mean anomaly at epoch: 137.7556°
orbit number at epoch: 69023

The dashed part of the orbit path shows where the satellite is in the earth's shadow,  

DLR